[[{"header":{"parameterUnit":"m.s-1","parameterCategory":1,"la1":30.2992,"la2":30.254,"lo1":-89.0895,"lo2":-89.0443,"dy":0.0025,"dx":0.0025,"nx":19,"ny":19,"refTime":"2026-05-12T21:00:00:Z","depth":0,"parameterNumber":2,"parameterNumberName":"U-component_of_WINDS"},"data":[0,0,0,-0.1035,-0.1033,-0.093,-0.093,-0.079,-0.0789,0,0,0,0,0,0,0,0,0,0,0,-0.106,-0.1059,-0.1036,-0.1033,-0.093,-0.093,-0.079,-0.0789,0,0,0,0,0,0,0,0,0,0,0,-0.1061,-0.106,-0.1058,-0.1033,-0.093,-0.093,-0.0791,-0.0871,0,0,0,0,0,0,0,0,0,0,-0.0973,-0.099,-0.106,-0.1058,-0.1032,-0.093,-0.093,-0.0875,-0.0866,-0.0833,0,-0.0802,0,-0.0793,-0.0779,-0.0778,0,0,0,-0.1037,-0.0997,-0.0975,-0.1058,-0.1031,-0.0931,-0.0978,-0.087,-0.086,-0.0821,-0.08,-0.0795,-0.0791,-0.0778,-0.0777,-0.0571,-0.057,0,0,-0.1043,-0.1039,-0.0982,-0.0968,-0.0983,-0.0981,-0.0975,-0.0864,-0.0841,-0.0799,-0.0792,-0.0788,-0.0777,-0.0776,-0.0572,-0.0571,0,0,0,-0.1056,-0.1043,-0.1023,-0.0973,-0.0956,-0.0978,-0.097,-0.0846,-0.084,-0.079,-0.0787,-0.0776,-0.0774,-0.0573,-0.0571,-0.051,0,0,0,-0.106,-0.1051,-0.1025,-0.1022,-0.0957,-0.0899,-0.0954,-0.0847,-0.0835,-0.0787,-0.0776,-0.0773,-0.0575,-0.0572,-0.0515,-0.0482,0,0,0,-0.1069,-0.1052,-0.1035,-0.1022,-0.0977,-0.0901,-0.0889,-0.0845,-0.0833,-0.0778,-0.0772,-0.0575,-0.0573,-0.0519,-0.0489,-0.0427,0,0,0,-0.1078,-0.0982,-0.1034,-0.0926,-0.0978,-0.0864,-0.089,-0.0805,-0.0751,-0.0775,-0.0574,-0.0572,-0.052,-0.0493,-0.0431,-0.0374,-0.035,0,0,-0.0955,-0.0967,-0.0904,-0.0947,-0.0823,-0.088,-0.0747,-0.0701,-0.07,-0.0614,-0.0609,-0.0513,-0.0489,-0.0428,-0.0217,-0.0198,0,0,0,-0.0864,-0.0818,-0.0786,-0.0734,-0.0697,-0.0663,-0.0638,-0.0621,-0.0549,-0.0655,-0.0474,-0.046,-0.0424,-0.0398,-0.0381,-0.0351,-0.0559,-0.0559,-0.056,-0.0684,-0.0687,-0.0583,-0.0574,-0.0524,-0.0499,-0.0459,-0.0432,-0.045,-0.0408,-0.0382,-0.0254,-0.0222,-0.021,-0.0178,-0.0352,-0.0352,-0.0352,-0.0352,-0.0505,-0.0441,-0.0467,-0.0376,-0.038,-0.0303,-0.0276,-0.0291,-0.0221,-0.0273,-0.0242,-0.0299,-0.0189,-0.0161,-0.0347,-0.0348,-0.0349,-0.0349,-0.0349,-0.0388,-0.0358,-0.0339,-0.0265,-0.0208,-0.0202,-0.0133,-0.014,-0.0145,-0.0114,-0.0088,-0.0089,-0.0092,-0.0101,-0.0101,-0.01,-0.01,-0.01,-0.0099,-0.0274,-0.0255,-0.0196,-0.0148,-0.0116,-0.0075,-0.005,-0.0019,0.0014,0.0004,0.0004,-0.0019,-0.0177,-0.0217,-0.0093,-0.0094,-0.0095,-0.0095,-0.0096,-0.0091,-0.0134,-0.0042,-0.001,0.0044,0.0101,0.0092,0.0156,0.0181,0.0215,0.0186,0.007,0.0057,0.0044,0.0011,0.0186,0.0186,0.0186,0.0186,0.0007,0.0,0.0092,0.0143,0.0193,0.0194,0.0296,0.0317,0.0331,0.0346,0.0319,0.0275,0.0262,0.0257,0.0239,0.0208,0.043,0.043,0.0431,0.0119,0.0116,0.0205,0.0219,0.0261,0.0297,0.0393,0.0453,0.046,0.044,0.0357,0.0347,0.0275,0.0252,0.0231,0.0203,0.0146,0,0]},{"header":{"parameterUnit":"m.s-1","parameterCategory":1,"la1":30.2992,"la2":30.254,"lo1":-89.0895,"lo2":-89.0443,"dy":0.0025,"dx":0.0025,"nx":19,"ny":19,"refTime":"2026-05-12T21:00:00:Z","depth":0,"parameterNumber":3,"parameterNumberName":"V-component_of_WINDS"},"data":[0,0,0,0.2546,0.2547,0.258,0.258,0.2643,0.2643,0,0,0,0,0,0,0,0,0,0,0,0.255,0.2551,0.2546,0.2547,0.258,0.258,0.2643,0.2643,0,0,0,0,0,0,0,0,0,0,0,0.255,0.2551,0.2552,0.2548,0.258,0.258,0.2642,0.261,0,0,0,0,0,0,0,0,0,0,0.2575,0.2591,0.255,0.2552,0.2548,0.258,0.258,0.2608,0.2612,0.2637,0,0.2663,0,0.2654,0.2649,0.2649,0,0,0,0.2537,0.2588,0.2585,0.2552,0.2548,0.258,0.2563,0.261,0.2615,0.2642,0.2664,0.2666,0.2656,0.265,0.265,0.2827,0.2828,0,0,0.2536,0.2563,0.2582,0.2589,0.2586,0.2562,0.2564,0.2613,0.2638,0.2664,0.2667,0.2657,0.265,0.2651,0.2825,0.2827,0,0,0,0.2537,0.2562,0.2557,0.2587,0.2591,0.2563,0.2565,0.2636,0.2632,0.2667,0.2657,0.2651,0.2652,0.2824,0.2826,0.2915,0,0,0,0.2536,0.2563,0.2557,0.2574,0.2591,0.2614,0.2588,0.2628,0.2633,0.2657,0.2651,0.2652,0.2822,0.2825,0.291,0.2953,0,0,0,0.2543,0.2564,0.2573,0.2576,0.2591,0.2612,0.2611,0.2629,0.2627,0.2649,0.2653,0.2821,0.2824,0.2905,0.2944,0.3006,0,0,0,0.2559,0.2653,0.2575,0.2676,0.2591,0.2668,0.261,0.2667,0.2696,0.2651,0.2823,0.2826,0.2903,0.2939,0.3001,0.3061,0.3089,0,0,0.2693,0.2671,0.2728,0.2658,0.2757,0.2661,0.2772,0.2773,0.2751,0.2802,0.2806,0.2912,0.2944,0.3005,0.3241,0.3264,0,0,0,0.2779,0.282,0.284,0.287,0.2873,0.2878,0.286,0.286,0.2903,0.2783,0.295,0.2969,0.3003,0.3031,0.305,0.3077,0.284,0.284,0.2839,0.3008,0.2972,0.3064,0.3033,0.3062,0.3041,0.3061,0.3058,0.3015,0.3055,0.307,0.3217,0.3251,0.3265,0.3294,0.31,0.3101,0.3101,0.3101,0.3199,0.3251,0.319,0.3257,0.3219,0.3275,0.3259,0.3226,0.3272,0.3204,0.3232,0.316,0.3291,0.3314,0.3108,0.3106,0.3106,0.3105,0.3105,0.3343,0.3362,0.336,0.3397,0.343,0.3395,0.3441,0.3406,0.3373,0.3401,0.3412,0.341,0.3403,0.3409,0.341,0.341,0.3411,0.3411,0.3411,0.3493,0.3488,0.3531,0.3541,0.3554,0.3567,0.3546,0.3558,0.3562,0.3533,0.3532,0.3485,0.3311,0.3267,0.3419,0.3418,0.3417,0.3416,0.3415,0.3697,0.3645,0.3712,0.3725,0.3732,0.3766,0.372,0.3747,0.3752,0.3775,0.3721,0.3599,0.3573,0.3558,0.3521,0.373,0.373,0.373,0.373,0.3818,0.3801,0.386,0.3883,0.3901,0.3866,0.3941,0.3925,0.3902,0.3902,0.3867,0.3816,0.3802,0.3784,0.3763,0.3728,0.3985,0.3985,0.3986,0.394,0.3923,0.3994,0.3969,0.3972,0.3976,0.4045,0.4073,0.4035,0.3995,0.3901,0.389,0.3807,0.3782,0.3739,0.3708,0.3643,0,0]}]]